Stations météo

Publicité
Gourdon, France (7535): Température de l'air & dewpoint: 14.08.2017 19:00:00 - 20.08.2017 19:00:00 (CEST)Gourdon, France (7535): Température de l'air 5cm: 14.08.2017 19:00:00 - 20.08.2017 19:00:00 (CEST)Gourdon, France (7535): Température de l'air -20cm & Température de l'air -100cm: 14.08.2017 19:00:00 - 20.08.2017 19:00:00 (CEST)Gourdon, France (7535): Vitesse du vent & gusts: 14.08.2017 19:00:00 - 20.08.2017 19:00:00 (CEST)Gourdon, France (7535): Direction du vent: 14.08.2017 19:00:00 - 20.08.2017 19:00:00 (CEST)Gourdon, France (7535): reduced air pressure: 14.08.2017 19:00:00 - 20.08.2017 19:00:00 (CEST)Gourdon, France (7535): visibility: 14.08.2017 19:00:00 - 20.08.2017 19:00:00 (CEST)Gourdon, France (7535): Ensoleillement: 14.08.2017 19:00:00 - 20.08.2017 19:00:00 (CEST)Gourdon, France (7535): Quantités de précipitations: 14.08.2017 19:00:00 - 20.08.2017 19:00:00 (CEST)
Date & Time tt [°C] td [°C] tt 5cm [°C] tt -20cm [°C] tt -100cm [°C] ff [km/h] ff [knt] fx [km/h] fx [knt] dd ppp [hPa] vv [km] sd [min] rr [mm]
20.08.2017 19:00:00 24,2 6,9 30,0 23,1 21,8 11 6 28 15 NNW 1023,1 20 60 0,0
20.08.2017 18:00:00 25,1 7,7 32,8 22,8 21,7 10 5 27 14 N 1023,4 20 60 0,0
20.08.2017 17:00:00 25,0 7,2 33,1 22,4 21,7 10 5 24 13 NNW 1023,6 20 60 0,0
20.08.2017 16:00:00 24,3 6,5 32,2 21,9 21,7 11 6 25 13 N 1024,0 20 60 0,0
20.08.2017 15:00:00 23,5 7,1 32,0 21,5 21,8 10 5 33 18 N 1024,5 20 60 0,0
20.08.2017 14:00:00 22,7 7,6 30,0 21,1 21,8 10 6 24 13 N 1024,8 20 60 0,0
20.08.2017 13:00:00 21,5 9,1 30,3 20,8 21,9 6 3 27 14 NNW 1025,4 20 60 0,0
20.08.2017 12:00:00 20,5 9,1 28,3 20,7 22,0 10 5 22 12 N 1026,0 20 60 0,0
20.08.2017 11:00:00 18,2 9,5 24,3 20,7 22,1 8 5 15 8 NNE 1026,5 20 60 0,0
20.08.2017 10:00:00 15,3 9,2 17,1 20,9 22,2 3 2 6 3 N 1026,3 20 60 0,0
20.08.2017 09:00:00 11,1 8,8 9,6 21,1 22,3 0 0 4 2 N 1026,7 20 56 0,0
20.08.2017 08:00:00 7,9 7,1 5,8 21,3 22,3 4 2 9 5 SE 1026,6 20 35 0,0
20.08.2017 07:00:00 7,5 6,8 5,8 21,6 22,4 4 2 9 5 SE 1026,1 20 0 0,0
20.08.2017 06:00:00 7,5 6,4 6,1 21,8 22,5 4 2 9 5 SSE 1025,7 20 0 0,0
20.08.2017 05:00:00 8,0 6,8 6,2 22,1 22,5 0 0 8 4 N 1025,9 20 0 0,0
20.08.2017 04:00:00 8,5 7,3 6,8 22,4 22,6 4 2 8 4 SSE 1025,4 20 0 0,0
20.08.2017 03:00:00 9,0 7,6 7,4 22,6 22,6 8 4 9 5 SE 1025,4 20 0 0,0
20.08.2017 02:00:00 9,8 7,7 7,7 22,9 22,6 7 4 11 6 S 1025,6 20 0 0,0
20.08.2017 01:00:00 11,0 8,0 8,2 23,2 22,6 0 0 10 5 N 1025,5 20 0 0,0
20.08.2017 00:00:00 13,4 8,0 8,7 23,4 22,5 0 0 8 5 N 1025,1 20 0 0,0
19.08.2017 23:00:00 15,5 8,0 11,4 23,6 22,4 4 2 8 4 N 1024,7 20 0 0,0
19.08.2017 22:00:00 16,5 7,7 12,8 23,8 22,4 5 3 16 8 NNW 1024,0 20 0 0,0
19.08.2017 21:00:00 18,2 7,3 16,5 23,8 22,3 9 5 18 10 NNW 1023,5 20 19 0,0
19.08.2017 20:00:00 20,4 7,0 20,6 23,7 22,2 12 6 25 13 NNW 1023,1 20 34 0,0
19.08.2017 19:00:00 21,5 7,0 25,7 23,5 22,1 9 5 22 12 N 1022,4 20 60 0,0
19.08.2017 18:00:00 22,6 7,2 30,1 23,2 22,1 11 6 24 13 NW 1022,4 20 60 0,0
19.08.2017 17:00:00 22,5 7,8 30,8 22,9 22,1 14 8 27 14 NNW 1022,6 20 60 0,0
19.08.2017 16:00:00 22,4 7,0 30,9 22,5 22,0 10 5 25 13 NW 1022,5 20 60 0,0
19.08.2017 15:00:00 21,7 7,9 30,1 22,1 22,1 9 5 25 14 NW 1022,9 20 60 0,0
19.08.2017 14:00:00 20,7 9,0 29,3 21,8 22,1 9 5 19 11 N 1023,1 20 60 0,0
19.08.2017 13:00:00 19,8 9,4 27,3 21,6 22,2 9 5 19 10 N 1023,3 20 60 0,0
19.08.2017 12:00:00 18,9 9,9 25,0 21,5 22,2 9 5 19 10 N 1023,7 20 57 0,0
19.08.2017 11:00:00 17,3 10,4 23,5 21,5 22,3 6 3 14 8 WNW 1023,8 20 60 0,0
19.08.2017 10:00:00 15,8 11,2 18,1 21,6 22,4 7 4 13 7 N 1024,0 20 60 0,0
19.08.2017 09:00:00 13,9 12,8 14,1 21,7 22,4 3 1 8 5 WNW 1024,0 20 60 0,0
19.08.2017 08:00:00 13,2 12,9 12,3 21,9 22,5 5 3 9 5 NNW 1023,8 7 24 0,0
19.08.2017 07:00:00 13,4 12,9 12,3 22,1 22,5 6 4 13 7 NNW 1022,9 10 0 0,0
19.08.2017 06:00:00 14,0 13,2 12,9 22,2 22,6 6 3 12 7 NW 1022,5 20 0 0,0
19.08.2017 05:00:00 14,9 13,6 12,9 22,4 22,6 4 2 10 6 NNW 1022,4 20 0 0,0
19.08.2017 04:00:00 15,7 14,2 14,6 22,6 22,7 7 4 14 7 NNW 1022,4 20 0 0,0
19.08.2017 03:00:00 16,5 14,5 15,3 22,7 22,7 4 2 10 6 NW 1022,3 20 0 0,0
19.08.2017 02:00:00 16,7 14,2 14,8 22,8 22,7 5 3 16 9 NW 1022,2 20 0 0,0
19.08.2017 01:00:00 16,3 14,1 14,4 23,0 22,7 4 2 12 7 W 1022,3 20 0 0,0
19.08.2017 00:00:00 16,8 14,1 14,8 23,2 22,7 0 0 4 2 N 1021,9 20 0 0,0
18.08.2017 23:00:00 17,7 13,8 15,3 23,3 22,7 0 0 10 6 N 1021,6 20 0 0,0
18.08.2017 22:00:00 18,6 13,7 16,4 23,4 22,7 3 2 9 5 WNW 1021,4 20 0 0,0
18.08.2017 21:00:00 19,5 13,2 17,5 23,4 22,6 2 1 15 8 W 1020,9 19 0 0,0
18.08.2017 20:00:00 20,6 13,1 20,8 23,4 22,6 7 4 20 11 WNW 1020,4 20 0 0,0
18.08.2017 19:00:00 21,3 14,2 21,9 23,4 22,6 6 4 14 8 WNW 1020,3 20 0 0,0
18.08.2017 18:00:00 21,7 14,8 22,9 23,4 22,6 5 3 18 10 WNW 1019,6 20 0 0,0
18.08.2017 17:00:00 21,8 16,7 22,7 23,3 22,5 7 4 21 11 NW 1019,3 20 0 0,0
18.08.2017 16:00:00 22,1 16,8 23,2 23,1 22,6 10 5 24 13 NNW 1019,5 20 0 0,0
18.08.2017 15:00:00 22,7 16,9 24,6 23,0 22,6 7 4 19 11 NW 1019,2 20 0 0,0
18.08.2017 14:00:00 22,7 16,9 24,5 22,8 22,6 14 8 47 25 NNW 1018,7 20 4 0,0
18.08.2017 13:00:00 21,9 16,6 24,6 22,6 22,7 11 6 28 15 NW 1019,0 20 5 0,0
18.08.2017 12:00:00 24,1 17,3 29,2 22,5 22,7 10 5 23 12 NW 1017,9 20 42 0,0
18.08.2017 11:00:00 22,0 17,4 25,1 22,4 22,8 5 3 16 9 NNW 1017,9 20 44 0,0
18.08.2017 10:00:00 20,1 16,5 20,4 22,5 22,8 2 1 8 4 NNW 1018,0 20 38 0,0
18.08.2017 09:00:00 17,5 15,5 17,6 22,6 22,9 4 2 8 4 W 1018,1 20 33 0,0
18.08.2017 08:00:00 15,9 15,1 13,5 22,8 22,9 3 1 11 6 NNE 1017,8 7 32 0,0
18.08.2017 07:00:00 14,4 13,6 13,4 23,1 23,0 6 3 12 6 ESE 1018,2 19 0 0,0
18.08.2017 06:00:00 14,8 14,2 13,2 23,3 23,0 3 2 8 4 SE 1018,2 20 0 0,0
18.08.2017 05:00:00 15,3 14,5 13,3 23,5 23,0 2 1 7 4 WSW 1018,5 20 0 0,0
18.08.2017 04:00:00 16,6 14,8 14,5 23,7 23,0 3 2 9 5 NNW 1018,2 20 0 0,0
18.08.2017 03:00:00 18,1 15,2 16,0 23,9 23,0 7 4 12 7 NW 1018,0 20 0 0,0
18.08.2017 02:00:00 18,8 15,5 15,7 24,2 23,0 6 3 11 6 ESE 1018,1 20 0 0,0
18.08.2017 01:00:00 17,8 14,5 15,1 24,4 22,9 7 4 10 5 ESE 1018,7 20 0 0,0
18.08.2017 00:00:00 18,2 14,3 16,3 24,6 22,8 4 2 8 4 SE 1019,2 20 0 0,0
17.08.2017 23:00:00 19,6 14,8 17,1 24,8 22,7 3 1 9 5 SE 1019,2 20 0 0,0
17.08.2017 22:00:00 23,0 14,0 17,9 24,8 22,6 4 2 9 5 NNW 1019,0 20 0 0,0
17.08.2017 21:00:00 24,9 13,4 21,6 24,8 22,5 5 3 11 6 NW 1018,7 20 6 0,0
17.08.2017 20:00:00 27,5 14,2 28,2 24,7 22,4 4 2 11 6 N 1018,2 20 39 0,0
17.08.2017 19:00:00 28,9 14,7 34,0 24,5 22,3 5 3 14 8 NW 1018,4 20 60 0,0
17.08.2017 18:00:00 28,0 15,3 33,7 24,1 22,2 8 5 18 10 NNW 1018,9 20 48 0,0
17.08.2017 17:00:00 28,8 15,0 - - - 9 5 18 10 NNW 1019,0 20 - -
17.08.2017 16:00:00 27,9 15,2 36,3 23,1 22,1 5 3 19 10 NNE 1019,4 20 60 0,0
17.08.2017 15:00:00 27,5 15,5 34,1 22,6 22,1 6 3 16 9 WNW 1019,8 20 60 0,0
17.08.2017 14:00:00 26,2 15,6 35,0 22,2 22,1 6 3 18 10 NNW 1020,4 20 60 0,0
17.08.2017 13:00:00 24,8 16,0 28,2 21,8 22,2 5 3 13 7 NNW 1020,7 20 58 0,0
17.08.2017 12:00:00 23,4 15,2 31,1 21,7 22,2 6 4 14 7 WNW 1021,5 20 60 0,0
17.08.2017 11:00:00 22,0 15,1 27,6 21,6 22,3 6 3 13 7 NNW 1021,8 20 60 0,0
17.08.2017 10:00:00 20,4 16,4 23,4 21,7 22,3 4 2 7 4 WNW 1021,5 20 60 0,0
17.08.2017 09:00:00 17,8 14,9 16,8 21,8 22,4 2 1 5 3 NNE 1021,7 20 60 0,0
17.08.2017 08:00:00 14,1 13,6 12,2 22,1 22,5 5 3 9 5 SE 1021,7 20 32 0,0
17.08.2017 07:00:00 13,6 13,1 12,4 22,3 22,5 7 4 11 6 SE 1021,6 20 0 0,0
17.08.2017 06:00:00 13,8 13,3 12,5 22,5 22,6 7 4 9 5 SE 1021,4 20 0 0,2
17.08.2017 05:00:00 14,2 13,6 13,3 22,7 22,6 6 3 8 5 SE 1021,4 20 0 0,0
17.08.2017 04:00:00 14,5 13,7 13,6 22,9 22,6 5 3 8 4 SE 1021,5 20 0 0,0
17.08.2017 03:00:00 14,9 14,1 14,0 23,1 22,6 4 2 11 6 SSE 1021,5 20 0 0,0
17.08.2017 02:00:00 15,2 14,4 14,4 23,3 22,6 9 5 11 6 SE 1021,7 20 0 0,0
17.08.2017 01:00:00 16,2 14,9 14,9 23,5 22,5 6 4 8 5 SE 1022,4 20 0 0,0
17.08.2017 00:00:00 18,0 15,4 15,1 23,7 22,5 4 2 7 4 NW 1022,4 20 0 0,0
16.08.2017 23:00:00 18,2 15,8 15,8 23,8 22,4 3 2 7 4 S 1022,2 20 0 0,0
16.08.2017 22:00:00 20,0 15,2 16,5 23,9 22,4 4 2 8 4 W 1021,9 20 0 0,0
16.08.2017 21:00:00 21,7 16,0 20,7 23,9 22,3 4 2 17 9 WNW 1021,4 20 2 0,0
16.08.2017 20:00:00 23,0 17,0 23,4 23,8 22,3 8 5 19 10 WNW 1021,0 20 2 0,0
16.08.2017 19:00:00 24,3 17,8 26,8 23,6 22,2 8 5 18 10 WNW 1020,4 20 18 0,0
16.08.2017 18:00:00 24,6 18,1 27,4 23,4 22,2 8 4 19 10 NW 1020,4 20 5 0,0
16.08.2017 17:00:00 26,3 17,6 31,6 23,1 22,2 8 4 16 9 NNW 1020,1 20 42 0,0
16.08.2017 16:00:00 25,2 17,1 30,0 22,9 22,2 7 4 16 8 NW 1020,3 20 17 0,0
16.08.2017 15:00:00 24,2 17,4 29,0 22,6 22,2 6 3 13 7 NNW 1020,7 20 1 0,0
16.08.2017 14:00:00 23,2 18,1 27,8 22,4 22,2 5 3 11 6 NNW 1021,0 20 0 0,0
16.08.2017 13:00:00 22,4 18,0 26,9 22,2 22,3 4 2 10 5 N 1021,2 20 0 0,0
16.08.2017 12:00:00 20,6 18,2 23,4 22,2 22,3 5 3 9 5 NNW 1021,5 20 0 0,0
16.08.2017 11:00:00 19,1 18,1 20,9 22,2 22,3 0 0 6 3 N 1021,3 15 0 0,0
16.08.2017 10:00:00 18,2 17,9 19,6 22,2 22,4 3 1 7 4 NW 1021,4 9 0 0,0
16.08.2017 09:00:00 17,7 17,5 17,9 22,3 22,4 3 1 8 4 N 1021,2 0,9 0 0,0
16.08.2017 08:00:00 17,4 17,2 17,5 22,4 22,5 5 3 9 5 N 1021,1 0,2 0 0,0
16.08.2017 07:00:00 17,4 17,2 17,5 22,5 22,5 4 2 6 4 NNW 1020,8 0,2 0 0,0
16.08.2017 06:00:00 17,6 17,4 17,7 22,6 22,5 0 0 7 4 N 1020,5 0,2 0 0,0
16.08.2017 05:00:00 17,7 17,5 16,8 22,8 22,5 3 2 7 4 NNW 1020,5 0,1 0 0,0
16.08.2017 04:00:00 17,9 17,6 16,2 22,9 22,6 3 1 6 3 N 1020,7 1,4 0 0,0
16.08.2017 03:00:00 18,5 18,2 18,2 23,0 22,6 3 2 9 5 NE 1020,9 0,1 0 0,0
16.08.2017 02:00:00 19,0 18,7 17,8 23,1 22,6 4 2 8 4 NW 1021,6 0,2 0 0,0
16.08.2017 01:00:00 19,3 18,6 18,7 23,3 22,6 2 1 4 2 NW 1021,4 6 0 0,0
16.08.2017 00:00:00 19,6 18,9 19,4 23,4 22,6 0 0 8 4 N 1021,5 5 0 0,0
15.08.2017 23:00:00 19,7 18,9 19,6 23,5 22,5 5 3 14 7 NNW 1021,3 9 0 0,0
15.08.2017 22:00:00 20,0 19,2 19,5 23,6 22,5 4 2 11 6 NW 1020,5 9 0 0,0
15.08.2017 21:00:00 20,9 19,7 20,4 23,6 22,5 5 3 10 5 SE 1019,5 16 0 0,0
15.08.2017 20:00:00 21,2 19,5 20,8 23,6 22,5 6 4 16 9 N 1019,4 20 0 0,2
15.08.2017 19:00:00 22,3 19,5 22,6 23,5 22,4 9 5 18 10 N 1019,4 20 0 0,0
15.08.2017 18:00:00 23,4 18,3 25,8 23,4 22,4 2 1 15 8 NW 1019,2 20 18 0,0
15.08.2017 17:00:00 23,2 19,4 25,2 23,3 22,4 9 5 22 12 N 1018,8 20 14 0,0
15.08.2017 16:00:00 23,0 18,7 22,7 23,2 22,4 10 5 17 9 NNW 1018,8 20 3 0,0
15.08.2017 15:00:00 22,3 18,7 21,9 23,2 22,4 6 4 19 11 NW 1018,7 20 0 0,0
15.08.2017 14:00:00 20,9 18,3 19,2 23,1 22,4 5 3 36 20 ENE 1017,9 20 0 1,2
15.08.2017 13:00:00 22,9 16,9 20,9 22,9 22,4 3 2 23 12 WSW 1019,6 17 7 0,2
15.08.2017 12:00:00 24,8 16,5 27,2 22,7 22,5 7 4 19 10 SSW 1018,6 20 48 0,0
15.08.2017 11:00:00 23,1 15,4 25,9 22,7 22,5 10 5 18 10 SSW 1018,3 20 44 0,0
15.08.2017 10:00:00 22,5 15,8 22,0 22,8 22,5 11 6 22 12 SSW 1017,9 20 45 0,0
15.08.2017 09:00:00 19,9 17,1 20,2 23,0 22,6 4 2 18 10 WNW 1018,2 20 1 0,0
15.08.2017 08:00:00 20,7 15,9 18,5 23,1 22,6 10 5 32 17 SSE 1016,4 20 0 0,0
15.08.2017 07:00:00 19,8 16,8 - - - 24 13 39 21 SE 1016,3 20 - 0,0
15.08.2017 06:00:00 20,4 16,6 - - - 8 4 18 10 SSW 1018,9 20 - 0,0
15.08.2017 05:00:00 21,2 15,5 20,3 23,5 22,6 14 8 32 18 S 1017,7 20 0 0,0
15.08.2017 04:00:00 21,7 15,8 20,2 23,7 22,5 9 5 19 11 E 1015,9 20 0 0,0
15.08.2017 03:00:00 22,4 16,2 20,7 23,9 22,5 5 3 23 12 SSW 1017,4 20 0 0,0
15.08.2017 02:00:00 22,8 15,4 20,5 24,0 22,4 6 4 42 23 S 1018,0 20 0 0,0
15.08.2017 01:00:00 23,3 14,0 21,6 24,2 22,3 10 6 24 13 SE 1015,6 20 0 0,0
15.08.2017 00:00:00 24,0 14,7 22,1 24,4 22,2 10 5 34 19 SSE 1015,1 20 0 0,0
14.08.2017 23:00:00 25,1 15,1 23,9 24,5 22,1 18 10 37 20 SE 1014,2 20 0 0,0
14.08.2017 22:00:00 26,0 15,1 24,3 24,7 22,0 14 7 29 15 SSE 1014,1 20 0 0,0
14.08.2017 21:00:00 27,7 14,3 26,0 24,6 21,8 14 8 26 14 SE 1013,4 20 1 0,0
14.08.2017 20:00:00 30,5 15,0 30,8 24,5 21,7 15 8 27 14 S 1012,5 20 55 0,0
14.08.2017 19:00:00 32,0 14,6 35,4 24,2 21,5 14 7 30 16 S 1012,4 20 60 0,0

tt = Température de l'air
td = dewpoint
tt 5cm = Température de l'air 5cm
tt -20cm = Température de l'air -20cm
tt -100cm = Température de l'air -100cm
ff = Vitesse du vent
fx = gusts
dd = Direction du vent
ppp = reduced air pressure
vv = visibility
sd = Ensoleillement
rr = Quantités de précipitations

stations d'obs. à proximité